Location: Oshawa
(43.9000°N, 78.8670°W)
Time: 16:08:17
(UTC-05:00)

PAYLOAD A - Visible Passes

Search period start: 31 January 2015 00:00
Search period end: 10 February 2015 00:00
Orbit: 692 x 832 km, 98.2° (Epoch: 30 January)

Date Brightness Start Highest point End Pass type
(mag) Time Alt. Az. Time Alt. Az. Time Alt. Az.
31 Jan 4.6 18:55:45 10° S 19:01:09 67° WSW 19:06:33 10° NNW visible
01 Feb 4.2 18:18:20 10° SSE 18:23:39 60° ENE 18:28:59 10° N visible
01 Feb 6.7 19:59:07 10° SW 20:03:04 20° W 20:06:50 10° NW visible
02 Feb 7.0 06:27:09 10° NE 06:30:18 17° E 06:33:35 10° SE visible
02 Feb 5.5 19:20:03 10° SSW 19:25:10 41° W 19:30:14 10° NNW visible
03 Feb 4.2 18:42:05 10° SSE 18:47:31 86° WSW 18:52:56 10° NNW visible
03 Feb 7.3 20:25:23 10° WSW 20:27:21 12° W 20:28:59 10° WNW visible
04 Feb 6.3 06:50:14 10° NE 06:54:29 28° E 06:58:40 10° SSE visible
04 Feb 4.4 18:04:57 10° SE 18:10:05 46° ENE 18:15:13 10° N visible
04 Feb 6.3 19:44:47 10° SSW 19:49:16 25° W 19:53:38 10° NW visible
05 Feb 7.3 06:14:29 10° ENE 06:16:24 12° E 06:18:34 10° ESE visible
05 Feb 5.0 19:06:11 10° S 19:11:28 53° W 19:16:43 10° NNW visible
06 Feb 4.1 18:28:31 10° SSE 18:33:55 74° ENE 18:39:15 10° N visible
06 Feb 7.0 20:10:13 10° SW 20:13:30 16° W 20:16:30 10° NW visible
07 Feb 6.8 06:36:59 10° NE 06:40:38 21° E 06:44:20 10° SE visible
07 Feb 5.9 19:30:39 10° SSW 19:35:31 33° W 19:40:16 10° NNW visible
08 Feb 4.5 18:52:25 10° S 18:57:49 70° WSW 19:03:08 10° NNW visible
09 Feb 4.2 18:15:03 10° SSE 18:20:19 57° ENE 18:25:30 10° N visible
09 Feb 6.7 19:55:39 10° SW 19:59:40 20° W 20:03:28 10° NW visible
